DW5656 Weather Reports


time (UTC)temp
F
wind
direction
speed
knots
gust
knots
rain 1hr
in
rain 24hr
in
rain mn
in
humidity
%
barometer
mb
20260508025340 60 205 1.7 7.0 0.00 0.00 0.00 74 1010.3
20260508024440 60 204 1.7 5.2 0.00 0.00 0.00 74 1010.5
20260508023541 61 207 2.6 6.1 0.00 0.00 0.00 74 1010.2
20260508022641 61 214 1.7 7.0 0.00 0.00 0.00 74 1010.3
20260508021740 61 212 1.7 5.2 0.00 0.00 0.00 73 1010.4
20260508020840 61 210 1.7 4.3 0.00 0.00 0.00 73 1010.4
20260508020001 61 201 1.7 5.2 0.00 0.00 0.00 73 1010.2
20260508015040 61 199 1.7 7.8 0.00 0.00 0.00 73 1010.3
20260508014201 61 202 1.7 6.1 0.00 0.00 0.00 73 1010.5
20260508013302 62 213 1.7 6.1 0.00 0.00 0.00 73 1010.6
20260508012340 62 218 2.6 6.1 0.00 0.00 0.00 73 1010.6
20260508011440 62 197 1.7 6.1 0.00 0.00 0.00 73 1010.6
20260508010540 62 210 1.7 4.3 0.00 0.00 0.00 73 1010.5
20260508005640 62 210 2.6 6.1 0.00 0.00 0.00 73 1010.7
20260508004740 62 220 1.7 7.0 0.00 0.00 0.00 73 1010.9
20260508003840 62 221 1.7 7.0 0.00 0.00 0.00 73 1010.9
20260508002940 62 219 2.6 6.1 0.00 0.00 0.00 73 1010.8
20260508002040 62 208 2.6 7.8 0.00 0.00 0.00 73 1010.6
20260508001140 62 197 2.6 7.0 0.00 0.00 0.00 73 1010.6
20260508000242 62 211 2.6 6.1 0.00 0.00 0.00 72 1010.8
20260507235340 62 219 1.7 7.8 0.00 0.00 0.00 72 1011.0
20260507234440 63 201 1.7 4.3 0.00 0.00 0.00 71 1010.9
20260507233540 62 206 2.6 5.2 0.00 0.00 0.00 71 1010.8
20260507232640 62 202 3.5 7.0 0.00 0.00 0.00 71 1010.8
20260507231740 62 198 2.6 7.0 0.00 0.00 0.00 71 1010.8
20260507230840 63 213 2.6 7.0 0.00 0.00 0.00 71 1011.1
20260507225940 62 213 3.5 6.1 0.00 0.00 0.00 71 1011.1
20260507225040 62 218 2.6 7.8 0.00 0.00 0.00 71 1011.2
20260507224140 62 213 2.6 4.3 0.00 0.00 0.00 71 1011.4
20260507223240 63 235 2.6 7.8 0.00 0.00 0.00 70 1011.5
20260507222340 63 224 2.6 4.3 0.00 0.00 0.00 69 1011.5
20260507221440 63 211 1.7 7.8 0.00 0.00 0.00 69 1011.6
20260507220540 63 222 2.6 6.1 0.00 0.00 0.00 68 1011.5
20260507215640 63 220 2.6 5.2 0.00 0.00 0.00 67 1011.5
20260507214801 63 223 2.6 5.2 0.00 0.00 0.00 66 1011.5
20260507213839 64 220 1.7 6.1 0.00 0.00 0.00 65 1011.5
20260507213001 64 220 1.7 6.1 0.00 0.00 0.00 64 1011.5
20260507212039 64 249 2.6 6.1 0.00 0.00 0.00 63 1011.4
20260507211201 64 246 3.5 7.0 0.00 0.00 0.00 62 1011.4
20260507210239 64 247 3.5 7.0 0.00 0.00 0.00 61 1011.3
20260507205339 64 245 2.6 8.7 0.00 0.00 0.00 61 1011.2
20260507204439 64 257 2.6 7.0 0.00 0.00 0.00 61 1011.1
20260507203540 64 266 3.5 7.8 0.00 0.00 0.00 61 1011.0
20260507202639 64 270 4.3 7.8 0.00 0.00 0.00 62 1010.9
20260507201740 64 264 4.3 10.4 0.00 0.00 0.00 61 1010.9
20260507200839 65 262 3.5 9.6 0.00 0.00 0.00 62 1011.0
20260507195939 65 266 3.5 8.7 0.00 0.00 0.00 62 1010.8
20260507195039 65 241 4.3 7.8 0.00 0.00 0.00 62 1010.7
20260507194139 66 250 4.3 9.6 0.00 0.00 0.00 62 1010.7
20260507193300 66 247 4.3 11.3 0.00 0.00 0.00 61 1010.6
20260507192339 66 258 5.2 10.4 0.00 0.00 0.00 61 1010.4
20260507191439 66 245 5.2 12.2 0.00 0.00 0.00 61 1010.4
20260507190539 67 244 7.0 11.3 0.00 0.00 0.00 59 1010.2
20260507185639 67 247 7.0 13.9 0.00 0.00 0.00 57 1010.0
20260507184739 67 249 7.8 14.8 0.00 0.00 0.00 57 1009.9
20260507183839 68 241 7.8 16.5 0.00 0.00 0.00 56 1009.8
20260507182939 68 237 7.0 16.5 0.00 0.00 0.00 55 1009.7
20260507182039 69 249 7.0 13.9 0.00 0.00 0.00 56 1009.5
20260507181139 69 247 7.8 14.8 0.00 0.00 0.00 56 1009.5
20260507180239 70 255 7.0 14.8 0.00 0.00 0.00 55 1009.4
20260507175339 70 255 7.0 15.6 0.00 0.00 0.00 53 1009.4
20260507174439 70 245 7.8 13.9 0.00 0.00 0.00 52 1009.3
20260507173539 70 245 7.0 13.9 0.00 0.00 0.00 51 1009.2
20260507172639 71 230 6.1 13.0 0.00 0.00 0.00 51 1009.0
20260507171740 71 243 7.0 12.2 0.00 0.00 0.00 50 1009.0
20260507170839 72 244 6.1 13.9 0.00 0.00 0.00 49 1009.0
20260507165939 72 231 6.1 12.2 0.00 0.00 0.00 48 1008.9
20260507165039 72 244 6.1 13.0 0.00 0.00 0.00 47 1008.8
20260507164139 73 233 5.2 11.3 0.00 0.00 0.00 46 1008.7
20260507163300 73 213 5.2 10.4 0.00 0.00 0.00 46 1008.8
20260507162339 73 234 6.1 13.0 0.00 0.00 0.00 45 1008.7
20260507161440 73 235 5.2 13.0 0.00 0.00 0.00 45 1008.7
20260507160600 74 245 5.2 13.0 0.00 0.00 0.00 44 1008.6
20260507155639 74 245 6.1 13.0 0.00 0.00 0.00 43 1008.6
20260507154739 73 269 6.1 13.9 0.00 0.00 0.00 44 1008.6
20260507153839 73 226 6.1 12.2 0.00 0.00 0.00 44 1008.6
20260507152939 73 248 7.0 13.9 0.00 0.00 0.00 44 1008.6
20260507152039 73 256 6.1 13.0 0.00 0.00 0.00 45 1008.7
20260507151139 73 246 5.2 13.9 0.00 0.00 0.00 46 1008.6
20260507150238 73 231 6.1 13.0 0.00 0.00 0.00 46 1008.8
20260507145400 73 240 5.2 12.2 0.00 0.00 0.00 47 1008.8
20260507144438 72 248 7.0 12.2 0.00 0.00 0.00 47 1009.0
20260507143539 72 248 7.8 13.9 0.00 0.00 0.00 48 1009.0
20260507142659 72 240 7.0 13.9 0.00 0.00 0.00 50 1009.1
20260507141738 72 234 6.1 15.6 0.00 0.00 0.00 52 1009.2
20260507140838 73 221 5.2 15.6 0.00 0.00 0.00 51 1009.2
20260507135938 72 224 5.2 13.9 0.00 0.00 0.00 51 1009.3
20260507135038 72 239 5.2 12.2 0.00 0.00 0.00 52 1009.4
20260507134159 72 231 7.0 14.8 0.00 0.00 0.00 53 1009.6
20260507133238 72 230 5.2 14.8 0.00 0.00 0.00 54 1009.6
20260507132338 72 218 5.2 12.2 0.00 0.00 0.00 53 1009.6
20260507131438 71 219 6.1 14.8 0.00 0.00 0.00 52 1009.7
20260507130538 71 219 6.1 13.0 0.00 0.00 0.00 53 1009.7
20260507125638 71 215 6.1 13.0 0.00 0.00 0.00 54 1009.8
20260507124759 71 218 6.1 13.9 0.00 0.00 0.00 54 1009.8
20260507123838 71 220 6.1 13.0 0.00 0.00 0.00 54 1009.8
20260507122938 72 227 5.2 13.9 0.00 0.00 0.00 55 1010.0
20260507122038 71 232 6.1 12.2 0.00 0.00 0.00 56 1009.9
20260507121159 71 230 4.3 12.2 0.00 0.00 0.00 56 1009.9
20260507120238 71 230 5.2 12.2 0.00 0.00 0.00 56 1010.0
20260507115338 70 235 4.3 12.2 0.00 0.00 0.00 55 1010.0
20260507114438 71 228 4.3 10.4 0.00 0.00 0.00 56 1010.2
20260507113538 71 236 4.3 9.6 0.00 0.00 0.00 57 1010.3
20260507112638 70 199 3.5 10.4 0.00 0.00 0.00 57 1010.3
20260507111738 70 216 4.3 8.7 0.00 0.00 0.00 59 1010.4
20260507110838 70 207 3.5 11.3 0.00 0.00 0.00 60 1010.5
20260507105959 70 205 2.6 9.6 0.00 0.00 0.00 59 1010.5
20260507105038 70 195 3.5 8.7 0.00 0.00 0.00 58 1010.4
20260507104138 69 193 3.5 11.3 0.00 0.00 0.00 59 1010.4
20260507103238 69 210 3.5 12.2 0.00 0.00 0.00 62 1010.6
20260507102338 68 210 2.6 7.8 0.00 0.00 0.00 63 1010.6
20260507101438 67 220 1.7 9.6 0.00 0.00 0.00 66 1010.7
20260507100538 68 227 0.9 8.7 0.00 0.00 0.00 66 1010.7
20260507095638 68 188 2.6 7.0 0.00 0.00 0.00 67 1010.7
20260507094737 67 186 3.5 11.3 0.00 0.00 0.00 67 1010.8
20260507093859 66 206 2.6 11.3 0.00 0.00 0.00 68 1010.7
20260507092958 66 195 0.9 9.6 0.00 0.00 0.00 71 1010.7
20260507092037 65 211 1.7 5.2 0.00 0.00 0.00 72 1010.6
20260507091138 65 232 0.9 10.4 0.00 0.00 0.00 72 1010.7
20260507090238 65 220 1.7 8.7 0.00 0.00 0.00 73 1010.7
20260507085337 65 200 1.7 9.6 0.00 0.00 0.00 72 1010.7
20260507084438 65 206 2.6 12.2 0.00 0.00 0.00 73 1010.5
20260507083537 65 200 2.6 14.8 0.00 0.00 0.00 73 1010.6
20260507082658 64 167 2.6 13.9 0.00 0.00 0.00 74 1010.5
20260507081737 64 190 2.6 11.3 0.00 0.00 0.00 73 1010.4
20260507080837 64 173 1.7 10.4 0.00 0.00 0.00 73 1010.5
20260507075937 64 192 1.7 7.0 0.00 0.00 0.00 73 1010.4
20260507075037 63 192 1.7 8.7 0.00 0.00 0.00 73 1010.4
20260507074138 63 187 1.7 7.8 0.00 0.00 0.00 73 1010.4
20260507073237 62 155 1.7 8.7 0.00 0.00 0.00 73 1010.3
20260507072358 62 144 0.9 6.1 0.00 0.00 0.00 73 1010.2
20260507071437 61 165 1.7 7.8 0.00 0.00 0.00 74 1010.1
20260507070537 61 148 1.7 6.1 0.00 0.00 0.00 74 1010.1
20260507065637 60 177 1.7 7.0 0.00 0.00 0.00 75 1010.0
20260507064737 60 141 0.9 5.2 0.00 0.00 0.00 75 1010.0
20260507063858 60 158 0.9 4.3 0.00 0.00 0.00 76 1010.0
20260507062958 60 152 0.0 3.5 0.00 0.00 0.00 76 1009.8
20260507062058 60 209 0.0 2.6 0.00 0.00 0.00 76 1009.8
20260507061137 60 181 0.0 2.6 0.00 0.00 0.00 76 1009.7
20260507060237 60 168 0.9 4.3 0.00 0.00 0.00 77 1009.6
20260507055337 59 157 0.0 6.1 0.00 0.00 0.00 77 1009.5
20260507054437 59 197 0.9 2.6 0.00 0.00 0.00 77 1009.5
20260507053537 59 187 0.0 3.5 0.00 0.00 0.00 77 1009.4
20260507052637 59 252 0.0 1.7 0.00 0.00 0.00 76 1009.5
20260507051737 59 252 0.0 2.6 0.00 0.00 0.00 76 1009.6
20260507050837 60 252 0.9 2.6 0.00 0.00 0.00 76 1009.5
20260507045937 60 236 0.0 3.5 0.00 0.00 0.00 76 1009.4
20260507045037 60 217 0.0 3.5 0.00 0.00 0.00 77 1009.4
20260507044158 60 90 0.0 1.7 0.00 0.00 0.00 77 1009.2
20260507043237 60 158 0.9 3.5 0.00 0.00 0.00 77 1009.2
20260507042337 60 188 0.9 5.2 0.00 0.00 0.00 77 1009.2
20260507041437 60 188 0.9 5.2 0.00 0.00 0.00 76 1009.1
20260507040558 60 205 0.9 3.5 0.00 0.00 0.00 76 1009.1
20260507035637 60 189 0.9 3.5 0.00 0.00 0.00 76 1009.0
20260507034737 60 207 0.9 5.2 0.00 0.00 0.00 76 1008.9
20260507033838 60 218 0.9 5.2 0.00 0.00 0.00 76 1009.0
20260507032937 60 250 0.9 4.3 0.00 0.00 0.00 76 1009.0
20260507032037 60 239 0.9 3.5 0.00 0.00 0.00 75 1009.1
20260507031136 61 230 0.9 4.3 0.00 0.00 0.00 75 1009.1
20260507030237 61 212 0.0 2.6 0.00 0.00 0.00 75 1009.0